Other Surface Observations
Issued by NWS Upton, NY

Current Version |  Previous Version |  Text Only |  Print | Product List |  Glossary On
Versions: 1 2 3 4 5 6 7 8 9 10 11 12 13 14 15 16 17 18 19 20 21 22 23 24 25 26 27 28 29 30 31 32 33 34 35 36 37 38 39 40 41 42 43 44 45 46 47 48 49 50
224
SXUS51 KOKX 201057
OSOOKX
New York City Metropolitan Area Weather Roundup
National Weather Service New York NY
700 AM EDT THU JUN 20 2024

CITY           SKY/WX    TMP DP  RH WIND       PRES   REMARKS
Central Park   SUNNY     73  62  68 VRB5      30.34S
LaGuardia Arpt PTSUNNY   75  61  61 SW7       30.30S
Kennedy Intl   MOSUNNY   72  66  81 SW9       30.32S
Newark Liberty PTSUNNY   74  63  68 SW7       30.31S
Teterboro Arpt SUNNY     73  63  70 S8        30.30S
Bronx Lehman C   N/A     73  63  68 W5          N/A
Queens College   N/A     72  64  78 SW6         N/A
Breezy Point     N/A    N/A N/A N/A SW3         N/A
Brooklyn Coll    N/A     72  64  78 SW6         N/A
Staten Island    N/A     70  64  83 SW3         N/A

>>>>>>>>>>>>>>>>>>>>>>>>>>>>>>>>> KEY <<<<<<<<<<<<<<<<<<<<<<<<<<<<<<<
> SKY/WX - Sky Condition/Present    : R : WCI - Wind Chill Index    <
>          Weather                  : E : VSB - Visibility in Miles <
> TMP    - Temperature in Deg F     : M : HX  - Heat Index          <
> DP     - Dew Point Temperature    : A : TC  - Temperature in      <
> RH     - Relative Humidity        : R :       Celsius             <
> WIND   - Direction/Speed (mph)    : K : VRB - Variable Wind Dir   <
> PRES   - Pressure (in Hg)         : S :                           <
>>>>>>>>>>>>>>>>>>>>>>>>>>>>>>>>> KEY <<<<<<<<<<<<<<<<<<<<<<<<<<<<<<<